Flag for U.S.A. Weather past 2 weeks in Everett, Washington, U.S.A.

Now
62 °F

Clear.


Feels Like: 62 °F
Forecast: 59 / 87 °F
Wind: No wind

Location: Snohomish County Airport

Current Time: Jul 3, 2015 at 5:34:22 AM

Latest Report: Jul 3, 2015 at 4:53 AM


Visibility: 10 mi

Pressure: 29.96 "Hg

Humidity: 70%

Dew point: 52 °F

Location of EverettLocation

Historic Weather in Everett — Graph

°F

Everett temperature yesterday

Maximum temperature yesterday: 87 °F (at 4:53 PM)
Minimum temperature yesterday: 63 °F (at 5:53 AM)
Average temperature yesterday: 75 °F

Past Weeks' High & Low Weather Summary

 TemperatureHumidityPressure
High87 °F (Jul 2, 4:53 PM)93% (Jun 18, 10:53 PM)30.17 "Hg (Jun 18, 10:53 PM)
Low51 °F (Jun 20, 4:53 AM)24% (Jun 21, 5:53 PM)29.91 "Hg (Jun 21, 10:53 AM)
Average67 °F61%30.04 "Hg
* Reported Jun 18 3:53 AM — Jul 3 3:53 AM, Everett, Weather by CustomWeather, © 2015

Note: Actual official high and low records may vary slightly from our data, if they occured in-between our weather recording intervals... More about our weather records

Advertising

Everett weather history for previous 24 hours

 ConditionsComfort  
Time TempWeatherWind HumidityBarometerVisibility
3:53 AM
Fri, Jul 3
64 °FClear.No wind65%29.95 "Hg10 mi
2:53 AM65 °FClear.No wind61%29.95 "Hg10 mi
1:53 AM66 °FClear.No wind59%29.95 "Hg10 mi
12:53 AM69 °FClear.No wind51%29.96 "Hg10 mi
11:53 PM
Thu, Jul 2
69 °FClear.5 mph51%29.96 "Hg10 mi
10:53 PM70 °FClear.3 mph53%29.95 "Hg10 mi
9:53 PM73 °FSunny.6 mph50%29.95 "Hg10 mi
8:53 PM77 °FSunny.6 mph44%29.94 "Hg10 mi
7:53 PM81 °FSunny.7 mph39%29.95 "Hg10 mi
6:53 PM83 °FSunny.7 mph37%29.95 "Hg10 mi
5:53 PM87 °FSunny.9 mph33%29.96 "Hg10 mi
4:53 PM87 °FSunny.9 mph35%29.97 "Hg10 mi
3:53 PM86 °FSunny.8 mph35%29.98 "Hg10 mi
2:53 PM84 °FSunny.8 mph37%30.00 "Hg10 mi
1:53 PM82 °FSunny.5 mph40%30.01 "Hg10 mi
12:53 PM80 °FSunny.8 mph41%30.02 "Hg10 mi
11:53 AM79 °FSunny.6 mph44%30.02 "Hg10 mi
10:53 AM76 °FSunny.6 mph48%30.03 "Hg10 mi
9:53 AM73 °FSunny.9 mph51%30.04 "Hg10 mi
8:53 AM70 °FSunny.6 mph59%30.04 "Hg10 mi
7:53 AM69 °FSunny.6 mph59%30.03 "Hg10 mi
6:53 AM68 °FSunny.6 mph61%30.02 "Hg10 mi
5:53 AM63 °FClear.No wind70%30.01 "Hg10 mi
Weather by CustomWeather, © 2015

See weather overviewHow to use our weather pages